Regional Weather Roundup
Issued by NWS Goodland, KS

Home | Current Version | Previous Version | Text Only | Print | Product List | Glossary On
Versions: 1 2 3 4 5 6 7 8 9 10 11 12 13 14 15 16 17 18 19 20 21 22 23 24 25 26 27 28 29 30 31 32 33 34 35 36 37 38 39 40 41 42 43 44 45 46 47 48 49 50
000
ASUS43 KGLD 300708
RWRGLD

GOODLAND FORECAST AREA HOURLY WEATHER ROUNDUP
NATIONAL WEATHER SERVICE GOODLAND KS
100 AM MDT MON MAR 30 2015

...OFFICIAL OBSERVATIONS...

CITY           SKY/WX    TMP DP  RH WIND       PRES   REMARKS
GOODLAND KS    MOCLDY    43  22  43 S14       30.18F
HILL CITY KS   CLEAR     33  16  49 CALM      30.20F
IMPERIAL NEB     N/A     44  19  36 S12       30.14F
MCCOOK NEB     CLEAR     43  16  33 S9        30.15F
AKRON CO       CLEAR     46  22  38 S12       30.14F
BURLINGTON CO  CLEAR     40  22  48 S13       30.18F
LIMON CO       CLEAR     41  22  46 S13       30.20F
$$

...UNOFFICIAL OBSERVATIONS...

CITY           SKY/WX    TMP DP  RH WIND       PRES   REMARKS
LENORA KS        N/A     41  32  70 MISG        N/A
TRIBUNE KS     CLEAR     43  28  56 S9        30.22F
$$


USA.gov is the U.S. government's official web portal to all federal, state and local government web resources and services.